Find Starlink 36709

NORAD ID: 67969 Int'l Des: 2026-038 Owner: SPXS Country: US Constellation: starlink operational
LEOCIRCULARRETROGRADE

当前视图

正在加载3D地球...

About Starlink 36709

Starlink 36709 (NORAD 67969) is a starlink constellation satellite (v2 mini) launched Feb 25, 2026 by SPXS of US. It operates in LEO, CIRCULAR, RETROGRADE orbit with a mass of 575.00 kg.

关于 Starlink 36709

正在加载描述...

即将过境

Passes for default location (London). Set your location on the main map for personalized predictions.

高度历史

Loading altitude history...

两行轨道根数

1 67969U 26038J 26194.59617996 .00007278 00000-0 22756-3 0 9999
2 67969 97.2841 203.9067 0001360 79.1047 281.0349 15.33442848 22536
Epoch: Jul 13, 2026 • Age: 12 hours

当前状态

高度 478.4 km
远地点 / 近地点 N/A
速度 7.62 km/s
星下点 -32.94°S, 123.25°W
发射日期 Feb 25, 2026
运行时间 0.3 years
类型 internet

技术详情

分类 Payload
质量 575.00 kg
干质量 530.00 kg
总质量 575.00 kg
长度 0.30 m
直径 4.10 m
跨度 29.00 m
形状 Box + pan
制造商 SPXS
平台类型 Starlink V2MO
阶段状态 In Orbit
所有者/国家 SPXS/US

Most Searched